Hourly Data Report for October 29, 2003

TORONTO CITY
ONTARIO

43°40'00.000" N
79°24'00.000" W
112.50 m
6158355
71508
XTO

Download Data

Hourly Data (October 2003)
Hourly Data Report for October 29, 2003
TIME
LST
Temp Definition
°C
Dew Point Definition
°C
Rel Hum Definition
%
Precip. Amount Definition
mm

Wind Dir Definition
10's deg

Wind Spd Definition
km/h
Visibility Definition
km
Stn Press Definition
kPa
Hmdx Definition


Wind Chill Definition


Weather Definition


00:00 9.9 5.3 73   LegendMM LegendMM LegendMM 99.06     LegendNANA
01:00 9.9 5.9 76   LegendMM LegendMM LegendMM 98.97     LegendNANA
02:00 10.0 6.3 78   LegendMM LegendMM LegendMM 98.95     LegendNANA
03:00 9.6 6.2 79   LegendMM LegendMM LegendMM 98.95     LegendNANA
04:00 8.9 6.4 84   LegendMM LegendMM LegendMM 99.00     LegendNANA
05:00 8.5 7.5 93   LegendMM LegendMM LegendMM 98.92     LegendNANA
06:00 8.5 7.7 95   LegendMM LegendMM LegendMM 98.85     LegendNANA
07:00 8.6 8.0 96   LegendMM LegendMM LegendMM 98.86     LegendNANA
08:00 8.8 8.3 97   LegendMM LegendMM LegendMM 98.89     LegendNANA
09:00 9.1 8.6 97   LegendMM LegendMM LegendMM 98.90     LegendNANA
10:00 9.8 9.1 95   LegendMM LegendMM LegendMM 98.86     LegendNANA
11:00 10.5 8.6 88   LegendMM LegendMM LegendMM 98.91     LegendNANA
12:00 11.1 6.6 74   LegendMM LegendMM LegendMM 98.94     LegendNANA
13:00 11.2 3.4 59   LegendMM LegendMM LegendMM 98.98     LegendNANA
14:00 10.2 3.7 64   LegendMM LegendMM LegendMM 99.03     LegendNANA
15:00 9.5 3.3 65   LegendMM LegendMM LegendMM 99.17     LegendNANA
16:00 9.2 2.2 62   LegendMM LegendMM LegendMM 99.24     LegendNANA
17:00 9.0 2.2 62   LegendMM LegendMM LegendMM 99.30     LegendNANA
18:00 8.9 1.8 61   LegendMM LegendMM LegendMM 99.41     LegendNANA
19:00 8.8 2.0 62   LegendMM LegendMM LegendMM 99.46     LegendNANA
20:00 8.3 2.6 67   LegendMM LegendMM LegendMM 99.53     LegendNANA
21:00 7.9 3.1 72   LegendMM LegendMM LegendMM 99.59     LegendNANA
22:00 7.6 3.6 76   LegendMM LegendMM LegendMM 99.66     LegendNANA
23:00 7.7 3.7 76   LegendMM LegendMM LegendMM 99.75     LegendNANA

Notes on Data Quality.

Legend

  • E = Estimated
  • M = Missing
  • NA = Not Available*
  • [empty] = Indicates an unobserved value
Date modified: